Bowling Green, Kentucky, United States (42101)
Lat: 36.99N, Lon: 86.44W
Wx Zone: KYZ071
Local Info
Past Weather Observations for Today

NOTE: This archive is for the closest National Weather Service station to Bowling Green. Information may differ from the station used for current weather conditions.

Click here for Long-term Archive

Time Weather Temperature Dewpoint Humidity Pressure Winds Precip Visibility
22:35
Partly Cloudy
36°F / 2°C 28°F / -2°C 75% 30.04 in
(1017 mb)
E 3.5 mph
(E 6 kph)
- 10SM
22:15
Mostly Cloudy
37°F / 3°C 28°F / -2°C 70% 30.04 in
(1017 mb)
Calm - 10SM
21:55
Mostly Cloudy
36°F / 2°C 28°F / -2°C 75% 30.06 in
(1018 mb)
E 3.5 mph
(E 6 kph)
- 10SM
21:35
Mostly Cloudy
37°F / 3°C 30°F / -1°C 75% 30.06 in
(1018 mb)
E 4.6 mph
(E 7 kph)
- 10SM
21:15
Mostly Cloudy
37°F / 3°C 30°F / -1°C 75% 30.06 in
(1018 mb)
E 3.5 mph
(E 6 kph)
- 10SM
20:55
Overcast
39°F / 4°C 30°F / -1°C 70% 30.06 in
(1018 mb)
NE 3.5 mph
(NE 6 kph)
- 10SM
20:35
Mostly Cloudy
39°F / 4°C 30°F / -1°C 70% 30.06 in
(1018 mb)
Calm - 10SM
20:15
Partly Cloudy
37°F / 3°C 28°F / -2°C 70% 30.09 in
(1019 mb)
Calm - 10SM
19:55
Mostly Cloudy
39°F / 4°C 28°F / -2°C 65% 30.09 in
(1019 mb)
Calm - 10SM
19:35
Overcast
39°F / 4°C 28°F / -2°C 65% 30.09 in
(1019 mb)
NE 3.5 mph
(NE 6 kph)
- 10SM
19:15
Overcast
41°F / 5°C 30°F / -1°C 66% 30.09 in
(1019 mb)
Calm - 10SM
18:55
Overcast
41°F / 5°C 30°F / -1°C 66% 30.09 in
(1019 mb)
Calm - 10SM
18:35
Overcast
41°F / 5°C 30°F / -1°C 66% 30.09 in
(1019 mb)
Calm - 10SM
18:15
Overcast
39°F / 4°C 30°F / -1°C 70% 30.09 in
(1019 mb)
Calm - 10SM
17:55
Mostly Cloudy
39°F / 4°C 30°F / -1°C 70% 30.09 in
(1019 mb)
Calm - 10SM
17:35
Mostly Cloudy
41°F / 5°C 30°F / -1°C 66% 30.09 in
(1019 mb)
NE 5.8 mph
(NE 9 kph)
- 7SM
17:15
Clear
Hazy
43°F / 6°C 28°F / -2°C 57% 30.09 in
(1019 mb)
NE 4.6 mph
(NE 7 kph)
- 5SM
16:55
Partly Cloudy
Hazy
43°F / 6°C 28°F / -2°C 57% 30.09 in
(1019 mb)
NE 4.6 mph
(NE 7 kph)
- 5SM
16:35
Partly Cloudy
43°F / 6°C 28°F / -2°C 57% 30.09 in
(1019 mb)
NE 3.5 mph
(NE 6 kph)
- 7SM
16:15
Clear
46°F / 8°C 28°F / -2°C 50% 30.09 in
(1019 mb)
NE 4.6 mph
(NE 7 kph)
- 7SM
15:55
Clear
48°F / 9°C 28°F / -2°C 46% 30.12 in
(1020 mb)
NE 3.5 mph
(NE 6 kph)
- 7SM
15:35
Clear
48°F / 9°C 28°F / -2°C 46% 30.12 in
(1020 mb)
Calm - 10SM
15:15
Clear
48°F / 9°C 28°F / -2°C 46% 30.09 in
(1019 mb)
NE 3.5 mph
(NE 6 kph)
- 10SM
14:55
Clear
50°F / 10°C 28°F / -2°C 43% 30.12 in
(1020 mb)
NE 3.5 mph
(NE 6 kph)
- 10SM
14:35
Clear
50°F / 10°C 28°F / -2°C 43% 30.12 in
(1020 mb)
E 6.9 mph
(E 11 kph)
- 10SM
14:15
Clear
50°F / 10°C 27°F / -3°C 40% 30.12 in
(1020 mb)
ENE 3.5 mph
(ENE 6 kph)
- 7SM
13:55
Clear
50°F / 10°C 28°F / -2°C 43% 30.12 in
(1020 mb)
ENE 4.6 mph
(ENE 7 kph)
- 10SM
13:35
Clear
48°F / 9°C 28°F / -2°C 46% 30.12 in
(1020 mb)
E 4.6 mph
(E 7 kph)
- 10SM
13:15
Clear
48°F / 9°C 28°F / -2°C 46% 30.12 in
(1020 mb)
Calm - 10SM
12:55
Clear
48°F / 9°C 28°F / -2°C 46% 30.15 in
(1021 mb)
E 5.8 mph
(E 9 kph)
- 10SM
12:35
Clear
48°F / 9°C 28°F / -2°C 46% 30.18 in
(1022 mb)
E 3.5 mph
(E 6 kph)
- 10SM
12:15
Clear
46°F / 8°C 28°F / -2°C 50% 30.18 in
(1022 mb)
ENE 5.8 mph
(ENE 9 kph)
- 10SM
11:55
Clear
46°F / 8°C 28°F / -2°C 50% 30.21 in
(1023 mb)
Calm - 10SM
11:35
Clear
45°F / 7°C 30°F / -1°C 57% 30.18 in
(1022 mb)
ENE 4.6 mph
(ENE 7 kph)
- 10SM
11:15
Clear
45°F / 7°C 30°F / -1°C 57% 30.21 in
(1023 mb)
ENE 4.6 mph
(ENE 7 kph)
- 10SM
10:55
Clear
43°F / 6°C 30°F / -1°C 61% 30.24 in
(1024 mb)
E 5.8 mph
(E 9 kph)
- 10SM
10:35
Clear
43°F / 6°C 30°F / -1°C 61% 30.24 in
(1024 mb)
ENE 4.6 mph
(ENE 7 kph)
- 10SM
10:15
Clear
41°F / 5°C 30°F / -1°C 66% 30.24 in
(1024 mb)
E 9.2 mph
(E 15 kph)
- 10SM
09:55
Clear
39°F / 4°C 30°F / -1°C 70% 30.24 in
(1024 mb)
E 9.2 mph
(E 15 kph)
- 7SM
09:35
Clear
37°F / 3°C 30°F / -1°C 75% 30.27 in
(1025 mb)
E 5.8 mph
(E 9 kph)
- 7SM
09:15
Clear
34°F / 1°C 30°F / -1°C 87% 30.27 in
(1025 mb)
E 8.1 mph
(E 13 kph)
- 7SM
08:55
Clear
Fog And Mist
32°F / 0°C 28°F / -2°C 87% 30.27 in
(1025 mb)
E 5.8 mph
(E 9 kph)
- 5SM
08:35
Clear
Fog And Mist
30°F / -1°C 28°F / -2°C 93% 30.27 in
(1025 mb)
ENE 3.5 mph
(ENE 6 kph)
- 5SM
08:15
Clear
Fog And Mist
30°F / -1°C 27°F / -3°C 86% 30.27 in
(1025 mb)
ENE 4.6 mph
(ENE 7 kph)
- 4SM
07:55
Clear
Fog And Mist
28°F / -2°C 27°F / -3°C 93% 30.27 in
(1025 mb)
Calm - 4SM
07:35
Clear
Fog And Mist
25°F / -4°C 25°F / -4°C 100% 30.27 in
(1025 mb)
Calm - 3SM
07:15
Clear
Fog And Mist
23°F / -5°C 23°F / -5°C 100% 30.27 in
(1025 mb)
Calm - 3SM
06:55
Clear
Fog And Mist
23°F / -5°C 23°F / -5°C 100% 30.27 in
(1025 mb)
Calm - 4SM
06:35
Clear
Fog And Mist
25°F / -4°C 25°F / -4°C 100% 30.27 in
(1025 mb)
Calm - 4SM
06:15
Clear
Fog And Mist
25°F / -4°C 25°F / -4°C 100% 30.27 in
(1025 mb)
Calm - 4SM
05:55
Clear
Fog And Mist
25°F / -4°C 25°F / -4°C 100% 30.27 in
(1025 mb)
Calm - 4SM
05:35
Clear
Fog And Mist
25°F / -4°C 25°F / -4°C 100% 30.27 in
(1025 mb)
Calm - 4SM
05:15
Clear
Fog And Mist
25°F / -4°C 25°F / -4°C 100% 30.24 in
(1024 mb)
Calm - 4SM
04:55
Clear
Fog And Mist
25°F / -4°C 25°F / -4°C 100% 30.24 in
(1024 mb)
Calm - 4SM
04:35
Clear
Fog And Mist
25°F / -4°C 25°F / -4°C 100% 30.24 in
(1024 mb)
Calm - 4SM
04:15
Clear
Fog And Mist
25°F / -4°C 25°F / -4°C 100% 30.24 in
(1024 mb)
Calm - 4SM
03:55
Clear
Fog And Mist
25°F / -4°C 25°F / -4°C 100% 30.24 in
(1024 mb)
Calm - 5SM
03:35
Clear
Fog And Mist
27°F / -3°C 27°F / -3°C 100% 30.27 in
(1025 mb)
Calm - 5SM
03:15
Clear
Fog And Mist
27°F / -3°C 27°F / -3°C 100% 30.27 in
(1025 mb)
Calm - 5SM
02:55
Clear
Fog And Mist
27°F / -3°C 27°F / -3°C 100% 30.27 in
(1025 mb)
Calm - 5SM
02:35
Clear
Fog And Mist
27°F / -3°C 25°F / -4°C 93% 30.27 in
(1025 mb)
Calm - 5SM
02:15
Clear
Fog And Mist
27°F / -3°C 25°F / -4°C 93% 30.27 in
(1025 mb)
Calm - 5SM
01:55
Clear
Fog And Mist
25°F / -4°C 25°F / -4°C 100% 30.27 in
(1025 mb)
Calm - 5SM
01:35
Clear
Fog And Mist
25°F / -4°C 25°F / -4°C 100% 30.27 in
(1025 mb)
Calm - 5SM
01:15
Clear
Fog And Mist
25°F / -4°C 25°F / -4°C 100% 30.27 in
(1025 mb)
Calm - 5SM
00:55
Clear
Fog And Mist
25°F / -4°C 25°F / -4°C 100% 30.27 in
(1025 mb)
Calm - 5SM
00:35
Clear
Fog And Mist
27°F / -3°C 25°F / -4°C 93% 30.27 in
(1025 mb)
Calm - 5SM
00:15
Clear
27°F / -3°C 25°F / -4°C 93% 30.27 in
(1025 mb)
Calm - 7SM
Time Weather Temperature Dewpoint Humidity Pressure Winds Precip Visibility


Weather for websites

WeatherForYou.com, LLC is not responsible for any damages or problems caused by this service. Current weather conditions are obtained from the closest station including government and personal stations which may have varying degrees of accuracy. Weather forecasts are derived from the NOAA NDFD. Like all things, this site belongs to Jesus Christ... He just trusts me to maintain it. If you have any questions or comments email webmaster@weatherforyou.com

Copyright © 2014, WeatherForYou.com LLC. All rights reserved.